This is the latest recevied weather packets stored in our database for station/object KB1WCR. If no packets are shown the sender has not sent any weather packets the latest 10 day(s).
| Time | Temp. | Humidity | Pressure | Rain* | Wind** | Luminosity | Snow |
|---|---|---|---|---|---|---|---|
| 1777688409 | 3.33° C | 80% | 1011.7 hPa | 0 mm | - | 0 W/m² | - |
| 1777688106 | 3.89° C | 79% | 1011.7 hPa | 0 mm | - | 0 W/m² | - |
| 1777687803 | 3.89° C | 78% | 1011.9 hPa | 0 mm | - | 0 W/m² | - |
| 1777687501 | 3.89° C | 79% | 1011.7 hPa | 0 mm | - | 0 W/m² | - |
| 1777687197 | 4.44° C | 77% | 1011.7 hPa | 0 mm | - | 0 W/m² | - |
| 1777686895 | 4.44° C | 76% | 1011.7 hPa | 0 mm | - | 0 W/m² | - |
| 1777686591 | 4.44° C | 76% | 1011.6 hPa | 0 mm | - | 0 W/m² | - |
| 1777686288 | 4.44° C | 75% | 1011.5 hPa | 0 mm | - | 0 W/m² | - |
| 1777685985 | 5° C | 73% | 1011.6 hPa | 0 mm | - | 0 W/m² | - |
| 1777685681 | 5° C | 73% | 1011.5 hPa | 0 mm | - | 0 W/m² | - |
| 1777685377 | 5° C | 72% | 1011.5 hPa | 0 mm | - | 0 W/m² | - |
| 1777685075 | 5.56° C | 74% | 1011.5 hPa | 0 mm | - | 0 W/m² | - |
| 1777684772 | 6.11° C | 73% | 1011.4 hPa | 0 mm | - | 0 W/m² | - |
| 1777684468 | 6.11° C | 71% | 1011.5 hPa | 0 mm | - | 0 W/m² | - |
| 1777684165 | 6.67° C | 69% | 1011.3 hPa | 0 mm | - | 0 W/m² | - |
| 1777683862 | 7.22° C | 69% | 1011.3 hPa | 0 mm | - | 0 W/m² | - |
| 1777683558 | 7.78° C | 61% | 1011.1 hPa | 0 mm | - | 0 W/m² | - |
| 1777683256 | 8.33° C | 57% | 1011.1 hPa | 0 mm | - | 0 W/m² | - |
| 1777682954 | 8.89° C | 54% | 1010.9 hPa | 0 mm | - | 0 W/m² | - |
| 1777682649 | 8.89° C | 53% | 1011.1 hPa | 0 mm | - | 0 W/m² | - |
| 1777682347 | 9.44° C | 49% | 1011 hPa | 0 mm | - | 0 W/m² | - |
| 1777682044 | 9.44° C | 49% | 1010.9 hPa | 0 mm | - | 0 W/m² | - |
| 1777681735 | 9.44° C | 51% | 1010.9 hPa | 0 mm | - | 0 W/m² | - |
| 1777681432 | 9.44° C | 49% | 1011 hPa | 0 mm | - | 0 W/m² | - |
| 1777681129 | 10° C | 48% | 1010.8 hPa | 0 mm | - | 0 W/m² | - |
* Rain latest hour (hover to see other rain measurements)
** Current wind speed in m/s (hover to see current wind gust speed)